Flag for United Kingdom Past Weather in Lerwick (Shetland Islands), Scotland, United Kingdom — Yesterday and Last 2 Weeks

Now
50 °F

Partly sunny.


Feels Like: 48 °F
Forecast: 41 / 51 °F
Wind: 7 mph from Northeast

Location: Lerwick

Current Time: Oct 1, 2016 at 4:34:44 PM

Latest Report: Oct 1, 2016 at 3:00 PM


Visibility: 25 mi

Pressure: 29.83 "Hg

Humidity: 71%

Dew Point: 41 °F

Location of Lerwick (Shetland Islands)Location

Past Weather in Lerwick (Shetland Islands) — Graph

°F

Lerwick (Shetland Islands) Temperature Yesterday

Maximum temperature yesterday: 52 °F (at 2:00 PM)
Minimum temperature yesterday: 46 °F (at 11:00 PM)
Average temperature yesterday: 49 °F

High & Low Weather Summary for the Past Weeks

 TemperatureHumidityPressure
High58 °F (Sep 17, 2:00 PM)100% (Sep 22, 9:00 AM)30.19 "Hg (Sep 22, 9:00 AM)
Low44 °F (Oct 1, 5:00 AM)66% (Sep 30, 1:00 PM)28.85 "Hg (Sep 29, 8:00 AM)
Average52 °F89%29.79 "Hg
* Reported Sep 16 3:00 PM — Oct 1 3:00 PM, Lerwick (Shetland Islands), Weather by CustomWeather, © 2016

Note: Actual official high and low records may vary slightly from our data, if they occured in-between our weather recording intervals... More about our weather records

Advertising

Lerwick (Shetland Islands) Weather History for the Previous 24 Hours

Scroll right to see more
 ConditionsComfort  
Time TempWeatherWind HumidityBarometerVisibility
3:00 PM
Sat, Oct 1
50 °FPartly sunny.7 mph71%29.83 "Hg25 mi
2:00 PM51 °FOvercast.6 mph73%29.83 "Hg19 mi
1:00 PM50 °FPartly sunny.7 mph72%29.81 "Hg28 mi
12:00 PM51 °FPartly sunny.6 mph68%29.80 "Hg25 mi
11:00 AM50 °FPartly sunny.5 mph73%29.78 "Hg25 mi
10:00 AM49 °FOvercast.5 mph77%29.77 "Hg22 mi
9:00 AM46 °FOvercast.3 mph80%29.75 "Hg22 mi
8:00 AM46 °FCool.2 mph87%29.73 "Hg19 mi
7:00 AM45 °FOvercast.2 mph86%29.72 "Hg18 mi
6:00 AM45 °FLight rain. Overcast.5 mph87%29.70 "Hg17 mi
5:00 AM44 °FPassing clouds.5 mph91%29.69 "Hg17 mi
4:00 AM45 °FPassing clouds.5 mph92%29.68 "Hg17 mi
3:00 AM44 °FPassing clouds.5 mph93%29.67 "Hg14 mi
2:00 AM45 °FPassing clouds.5 mph91%29.67 "Hg19 mi
1:00 AM46 °FPassing clouds.7 mph89%29.66 "Hg25 mi
12:00 AM46 °FClear.8 mph90%29.64 "Hg28 mi
11:00 PM
Fri, Sep 30
46 °FPassing clouds.8 mph95%29.63 "Hg28 mi
10:00 PM46 °FCool.9 mph89%29.61 "Hg31 mi
9:00 PM47 °FPassing clouds.7 mph91%29.59 "Hg28 mi
8:00 PM47 °FLow clouds.12 mph92%29.57 "Hg25 mi
7:00 PM49 °FSprinkles. Overcast.18 mph87%29.53 "Hg12 mi
6:00 PM49 °FSprinkles. Overcast.18 mph90%29.50 "Hg12 mi
5:00 PM49 °FOvercast.21 mph89%29.47 "Hg19 mi
4:00 PM51 °FCool.17 mph76%29.44 "Hg25 mi
Weather by CustomWeather, © 2016

See weather overviewHow to use our weather pages